Simultaneous Nadir Overpasses (SNOs) Predictions

Prediction of SNOs between GOES-15 and LANDSAT-8 Satellite Orbit:

Table of predicted SNOs for the next 14.0 days since TLE Epoch: 2/28/2025
Index Date Time (GOES-15) GOES-15 Lat,Lon LANDSAT-8 Lat,Lon Distance(km) Time Diff (sec)
1 03/02/2025 17:53:23 0.03, 61.32 0.63, 64.27 335.04 80
2 03/03/2025 06:14:39 -0.03, 61.37 0.44, 59.11 256.77 80
3 03/05/2025 06:05:07 -0.04, 61.36 -0.16, 62.07 79.80 80
4 03/07/2025 05:52:56 -0.04, 61.36 -0.85, 65.01 415.85 80
5 03/07/2025 18:14:20 0.05, 61.30 -0.25, 59.82 168.68 80
6 03/09/2025 17:59:27 0.05, 61.31 0.37, 62.78 167.36 80
7 03/10/2025 06:20:42 -0.06, 61.37 0.74, 57.63 425.78 80
8 03/12/2025 06:08:28 -0.06, 61.37 0.14, 60.59 89.07 80
9 03/14/2025 05:58:54 -0.05, 61.37 -0.50, 63.56 248.02 80
10 03/14/2025 18:20:18 0.06, 61.31 -0.55, 58.36 335.11 80
